Wind_Speed
4 6 5 10 14 15 16 19 20 20 23 37 40 33 26 31 41 41 40 41 41 40 40 40 41 40 40 40 41 41 41 42 42 42 42 42 43 43 43 44 45 47 49 50
2 7 12 12 11 12 13 14 17 18 24 32 33 30 26 26 35 40 37 38 39 39 38 39 39 40 40 40 40 41 42 43 43 44 44 43 43 43 43 45 46 47 48 49
8 14 17 13 15 16 16 15 19 24 29 30 30 32 27 25 35 38 37 37 37 37 37 37 39 41 42 43 43 43 44 45 45 46 46 45 44 44 45 46 47 47 49 50
12 17 20 18 16 18 20 21 28 30 30 31 30 34 28 25 35 37 36 34 33 34 35 36 37 38 39 40 41 42 43 43 43 45 45 45 44 45 46 47 48 49 51 52
13 20 22 20 19 22 26 27 29 29 28 28 23 24 22 22 30 33 33 32 29 30 33 34 35 36 37 37 38 38 38 38 39 40 41 42 43 44 45 47 48 49 49 50
12 16 17 15 15 18 19 18 18 17 17 18 17 18 16 22 26 31 35 36 35 34 33 33 34 34 35 36 36 37 38 38 38 39 40 42 43 44 45 46 47 48 49 49
10 11 14 13 12 14 14 13 12 9 9 15 17 16 16 25 29 32 35 38 39 38 37 37 37 37 36 37 37 38 39 40 41 42 45 46 47 47 47 48 49 50 50 50
6 8 10 10 9 11 11 10 10 12 10 12 14 17 20 28 30 29 31 34 38 40 42 42 41 40 40 40 39 39 40 41 43 45 46 48 50 49 49 50 51 50 50 49
9 8 9 12 11 12 12 10 11 15 14 14 13 14 21 30 33 34 36 37 38 40 42 44 44 44 44 43 42 42 42 43 44 45 46 47 48 48 48 49 49 50 50 49
10 10 10 14 17 15 16 16 18 20 21 20 19 17 21 31 35 39 38 38 39 39 40 41 43 43 44 44 44 44 44 44 44 44 44 45 45 46 46 46 48 49 48 45
14 13 12 13 16 17 19 21 21 22 23 25 25 21 19 28 32 34 34 34 34 35 36 39 41 42 43 43 43 43 43 42 43 43 42 42 43 43 43 44 44 43 39 37
11 12 11 12 12 13 16 19 21 24 24 25 26 21 19 25 27 31 33 35 35 35 36 38 40 41 42 42 42 41 40 39 40 40 40 39 39 39 39 39 36 33 31 29
10 10 11 10 12 13 18 22 24 25 25 25 25 21 19 27 32 35 35 35 36 37 39 40 40 41 42 42 41 41 38 37 37 36 36 35 35 34 33 31 28 26 24 22
11 11 12 13 13 16 19 22 24 26 27 26 25 26 25 29 32 33 33 34 35 37 38 40 42 42 41 40 40 39 37 36 34 32 31 31 30 29 26 23 21 20 20 18
9 10 13 14 16 17 18 19 21 23 24 26 26 27 29 32 34 35 36 37 38 38 39 40 42 42 41 40 39 37 34 32 31 28 27 26 25 23 19 18 17 15 14 15
12 11 12 13 17 18 18 19 21 23 25 28 30 32 32 34 35 36 37 40 43 42 41 41 42 42 41 40 39 36 32 30 29 26 24 23 22 18 16 15 14 13 11 10
16 16 16 15 18 19 21 23 25 26 28 32 36 39 41 41 40 38 37 39 43 43 42 42 42 42 41 41 40 36 33 31 29 27 24 22 20 17 15 15 14 13 10 9
18 20 22 22 23 25 22 30 31 31 31 35 39 41 44 44 42 42 43 45 45 45 44 43 42 42 42 41 40 37 33 32 30 28 26 23 19 16 14 14 14 13 10 9
21 23 25 27 29 31 32 36 38 40 41 43 43 45 46 46 46 46 48 49 48 47 48 47 44 41 41 41 41 38 33 32 30 28 26 22 18 15 14 14 13 12 13 12
30 29 30 31 34 39 41 43 44 46 49 51 52 54 54 55 55 54 53 52 50 48 48 49 46 42 40 39 39 38 33 31 30 28 24 21 17 15 13 13 13 13 14 16
31 33 36 38 41 43 48 48 49 51 52 54 56 57 58 59 59 59 58 57 53 50 48 48 47 44 39 38 37 36 33 31 30 27 22 19 17 16 14 13 13 13 14 15
33 35 38 41 43 46 49 52 53 55 57 59 60 62 62 63 63 62 61 58 56 52 47 45 45 43 39 37 36 34 33 32 30 27 23 20 18 17 16 15 13 12 12 11
39 41 42 44 47 51 52 53 55 58 60 61 63 64 66 67 68 68 66 64 61 57 50 44 43 43 39 37 37 35 33 33 32 30 27 24 21 19 17 15 13 12 10 9
42 42 42 44 49 53 54 55 58 61 63 66 68 68 70 73 73 69 66 65 65 63 57 48 44 44 41 38 39 34 32 32 33 33 32 29 25 22 19 16 14 12 10 10
44 43 44 47 51 54 57 60 63 66 69 72 74 75 74 74 71 66 66 68 65 61 58 53 48 46 44 42 40 34 32 32 33 34 35 32 29 25 21 17 15 14 12 11
45 46 48 51 54 58 63 67 70 73 75 77 78 77 77 77 78 76 74 74 73 69 63 55 50 48 47 44 41 37 35 34 34 35 37 35 31 28 24 20 17 15 14 13
Wind_Direction
224 243 233 234 240 246 241 217 211 216 247 263 270 276 269 265 278 282 284 287 288 287 287 286 286 286 285 285 284 284 284 284 284 284 284 283 282 282 281 282 281 281 280 279
245 267 251 256 259 259 253 247 247 254 256 265 276 282 282 278 279 285 290 290 289 288 288 289 290 290 290 289 289 289 288 287 287 286 286 284 283 282 281 280 279 279 278 277
245 259 263 272 274 271 264 263 258 246 249 266 280 285 290 290 282 289 293 293 293 291 289 287 287 288 288 287 287 286 286 286 287 286 286 285 284 282 281 280 279 278 278 278
262 264 271 270 270 272 270 262 263 269 276 280 284 287 289 283 283 288 290 293 295 295 295 293 291 291 290 288 286 285 285 285 285 285 285 284 283 282 280 280 279 278 277 277
266 269 279 280 275 271 274 277 279 285 289 291 295 293 296 278 277 283 289 292 292 296 295 293 292 292 291 290 288 287 286 285 283 282 282 281 281 281 281 280 278 278 277 276
279 287 293 290 282 282 289 292 295 301 309 302 285 270 275 272 276 282 288 289 293 299 297 293 291 289 287 286 286 287 287 286 285 284 283 282 282 281 281 281 280 279 278 276
325 322 320 307 295 293 300 306 306 309 307 305 296 301 298 289 291 295 296 297 299 301 299 297 295 293 289 287 286 286 287 287 288 288 288 287 286 285 283 283 282 281 281 280
284 299 304 313 307 301 304 307 312 301 278 270 288 306 296 290 295 296 292 292 294 294 295 295 295 293 292 290 289 288 287 288 289 290 290 290 288 286 284 283 283 284 284 283
254 257 290 307 312 314 313 311 299 301 304 301 298 289 298 293 295 300 303 301 297 296 296 296 295 293 291 288 286 285 285 286 287 288 289 288 287 285 284 284 285 287 287 284
285 282 287 296 313 321 314 312 309 308 307 301 297 288 282 287 296 302 307 307 306 306 306 303 300 298 295 289 285 283 283 285 287 289 289 288 287 287 287 288 290 291 288 282
301 297 297 295 298 305 307 315 316 310 306 305 307 306 290 286 290 296 301 303 304 305 304 303 302 300 298 294 288 283 282 284 287 289 288 288 288 289 291 294 295 290 284 278
306 309 315 313 312 300 291 301 307 307 309 307 308 315 306 294 296 297 301 303 304 305 303 303 305 305 301 295 289 285 282 284 287 288 289 289 290 293 297 298 294 288 277 271
303 305 304 302 306 301 288 299 308 310 311 312 310 311 300 291 291 294 299 302 305 307 308 308 310 311 308 300 291 285 283 285 288 289 291 294 298 302 302 300 289 281 278 264
297 296 293 294 290 285 290 296 299 298 300 304 302 299 294 289 289 294 300 304 305 307 309 310 310 311 312 308 299 290 286 287 288 290 294 300 306 309 305 298 293 283 277 264
306 301 296 295 293 292 295 295 293 292 294 295 298 295 295 293 297 302 305 304 303 305 310 312 312 312 315 315 307 296 290 288 287 290 297 303 307 309 305 300 297 292 283 267
321 315 308 307 303 305 306 301 297 299 300 298 298 296 297 300 303 305 305 303 302 304 307 309 311 312 314 316 313 300 290 287 286 288 294 299 303 304 298 296 300 298 298 282
315 313 311 314 312 310 306 302 304 305 304 300 298 299 301 303 302 302 302 301 300 301 302 304 307 310 312 313 315 306 290 285 285 285 288 292 296 296 292 291 293 297 298 292
316 314 312 314 312 314 309 305 305 306 302 296 294 296 298 298 298 299 299 298 299 301 302 302 303 305 307 310 311 309 292 283 282 282 283 284 288 288 287 287 286 280 275 276
315 313 312 313 311 310 307 303 306 308 307 302 300 297 295 296 296 296 295 296 295 294 296 298 299 299 300 304 307 308 296 281 279 280 280 278 281 281 281 278 274 268 266 268
314 311 310 311 311 312 307 304 305 305 307 303 301 299 299 298 297 296 295 294 292 289 290 293 295 294 293 295 299 304 297 279 276 278 276 274 278 280 279 274 268 264 265 266
312 313 313 312 311 309 303 303 302 303 301 298 298 298 297 297 297 296 296 294 292 289 288 288 289 288 287 288 291 296 293 278 272 273 269 266 276 283 285 279 269 266 266 263
310 309 308 307 305 301 300 300 300 299 298 298 298 297 296 295 294 293 293 292 290 288 285 284 283 284 281 280 284 288 287 278 268 263 259 258 270 282 287 279 267 261 258 251
306 306 308 307 303 300 301 302 301 300 299 298 297 296 294 292 291 290 289 289 288 286 283 278 276 277 274 272 274 278 280 275 265 254 253 255 262 273 278 271 257 247 240 225
303 307 308 306 303 305 305 303 302 301 299 297 295 293 290 289 288 287 286 285 284 283 280 275 270 268 264 260 264 267 270 270 263 251 248 252 256 262 267 264 248 235 224 209
310 309 308 306 307 306 304 304 303 301 299 297 295 294 292 290 288 284 280 278 277 276 276 274 270 266 258 253 258 263 266 264 261 250 244 247 250 254 256 253 239 228 221 211
313 313 312 310 309 307 307 306 304 302 300 298 296 294 292 290 288 285 282 279 277 275 274 273 269 267 263 253 253 257 260 260 257 250 241 240 243 246 248 245 237 228 225 221
Height
5876 5879 5880 5882 5882 5884 5886 5888 5890 5893 5891 5883 5882 5885 5887 5884 5879 5878 5877 5875 5874 5873 5871 5870 5868 5867 5866 5865 5863 5862 5861 5859 5858 5856 5855 5854 5853 5852 5851 5849 5848 5847 5845 5844
5877 5877 5878 5879 5881 5881 5882 5884 5886 5887 5885 5880 5878 5878 5879 5878 5874 5871 5871 5869 5867 5865 5864 5862 5860 5858 5856 5855 5854 5853 5851 5849 5848 5846 5845 5843 5842 5841 5839 5838 5837 5836 5834 5833
5875 5873 5874 5876 5877 5877 5878 5880 5879 5878 5875 5873 5873 5872 5872 5871 5867 5864 5864 5862 5859 5857 5856 5855 5852 5850 5847 5846 5844 5843 5841 5839 5837 5835 5833 5832 5830 5829 5828 5826 5825 5824 5823 5821
5872 5871 5871 5872 5873 5873 5872 5872 5869 5869 5870 5870 5869 5865 5866 5865 5860 5858 5856 5855 5853 5850 5847 5845 5843 5840 5838 5836 5834 5832 5831 5830 5827 5825 5823 5821 5820 5819 5817 5815 5814 5813 5812 5810
5869 5867 5867 5868 5868 5867 5866 5865 5864 5864 5863 5863 5863 5860 5861 5857 5853 5850 5848 5848 5846 5845 5842 5839 5836 5833 5830 5827 5824 5823 5822 5821 5819 5817 5814 5813 5811 5809 5807 5805 5803 5801 5800 5798
5865 5864 5863 5863 5863 5862 5861 5860 5859 5859 5859 5859 5858 5856 5855 5847 5847 5846 5844 5841 5839 5838 5836 5832 5830 5827 5823 5820 5818 5816 5814 5812 5810 5808 5806 5803 5801 5799 5796 5793 5791 5789 5787 5786
5864 5862 5861 5860 5859 5858 5858 5858 5857 5858 5859 5856 5852 5851 5851 5845 5845 5843 5839 5835 5832 5831 5829 5825 5822 5819 5816 5813 5811 5808 5806 5803 5800 5798 5795 5793 5790 5787 5785 5782 5779 5776 5774 5772
5862 5862 5860 5858 5857 5856 5855 5855 5855 5854 5854 5854 5853 5853 5851 5844 5842 5840 5837 5833 5829 5825 5821 5817 5814 5811 5807 5804 5802 5800 5797 5795 5792 5789 5785 5782 5778 5776 5773 5770 5767 5764 5761 5758
5860 5860 5859 5857 5856 5855 5853 5853 5853 5851 5850 5850 5851 5850 5845 5836 5835 5833 5830 5827 5822 5818 5813 5809 5804 5801 5798 5795 5792 5790 5787 5785 5782 5779 5775 5771 5767 5764 5761 5758 5754 5750 5746 5743
5858 5858 5857 5856 5853 5852 5851 5850 5850 5848 5846 5845 5845 5845 5843 5834 5829 5826 5822 5818 5814 5809 5805 5799 5794 5790 5786 5783 5781 5779 5777 5774 5772 5768 5764 5760 5757 5753 5749 5745 5741 5735 5732 5729
5855 5854 5854 5852 5851 5849 5848 5846 5844 5843 5841 5839 5837 5839 5837 5831 5826 5821 5816 5811 5806 5802 5797 5792 5786 5781 5777 5772 5769 5767 5766 5764 5761 5757 5754 5750 5746 5743 5738 5733 5727 5722 5719 5717
5853 5851 5850 5849 5848 5846 5845 5844 5842 5839 5836 5834 5831 5833 5829 5823 5819 5814 5809 5804 5798 5794 5789 5783 5778 5772 5767 5763 5759 5757 5756 5754 5751 5747 5744 5740 5737 5733 5728 5722 5716 5712 5710 5709
5851 5850 5848 5847 5847 5844 5841 5839 5837 5835 5831 5829 5826 5827 5824 5818 5813 5808 5803 5798 5793 5788 5783 5777 5771 5765 5759 5754 5750 5747 5746 5744 5741 5738 5735 5731 5727 5723 5718 5713 5708 5705 5703 5702
5849 5848 5847 5845 5843 5840 5838 5836 5834 5831 5828 5824 5822 5819 5817 5811 5806 5801 5797 5793 5789 5783 5777 5772 5766 5760 5753 5747 5741 5738 5737 5735 5733 5730 5727 5724 5720 5715 5710 5706 5703 5700 5698 5697
5847 5845 5843 5841 5838 5836 5834 5832 5830 5827 5823 5819 5817 5813 5809 5803 5799 5795 5791 5787 5781 5776 5770 5765 5759 5753 5747 5741 5735 5731 5729 5728 5726 5724 5721 5717 5714 5710 5706 5702 5699 5696 5694 5694
5844 5842 5839 5837 5834 5831 5829 5827 5824 5821 5817 5813 5809 5805 5801 5796 5792 5788 5784 5778 5772 5768 5763 5757 5751 5746 5740 5735 5729 5724 5722 5721 5719 5718 5715 5713 5710 5706 5703 5700 5697 5694 5693 5691
5840 5838 5835 5833 5830 5827 5825 5821 5819 5816 5812 5806 5801 5798 5793 5789 5784 5780 5775 5769 5763 5758 5754 5749 5743 5738 5733 5728 5723 5718 5715 5714 5713 5711 5710 5708 5706 5703 5700 5697 5695 5693 5692 5691
5836 5833 5830 5828 5826 5822 5821 5815 5811 5808 5803 5798 5793 5788 5784 5779 5775 5770 5764 5758 5752 5747 5743 5738 5733 5729 5725 5720 5716 5712 5708 5706 5706 5705 5705 5703 5701 5699 5696 5694 5692 5691 5690 5690
5832 5829 5825 5822 5818 5815 5812 5806 5802 5798 5792 5786 5782 5777 5771 5767 5763 5759 5752 5746 5741 5736 5731 5727 5723 5719 5715 5712 5708 5704 5700 5699 5698 5698 5699 5698 5696 5694 5692 5691 5690 5689 5689 5688
5824 5821 5819 5815 5810 5805 5802 5796 5791 5787 5780 5772 5767 5761 5756 5751 5747 5744 5738 5732 5727 5723 5719 5715 5712 5709 5706 5703 5700 5696 5693 5691 5691 5691 5692 5692 5690 5689 5688 5687 5686 5685 5685 5685
5820 5815 5810 5806 5801 5796 5788 5785 5780 5776 5770 5762 5755 5748 5742 5736 5731 5726 5721 5716 5712 5708 5705 5702 5699 5697 5696 5693 5691 5688 5685 5684 5684 5685 5686 5686 5685 5683 5682 5682 5681 5681 5681 5681
5815 5811 5806 5799 5793 5788 5780 5774 5769 5762 5755 5748 5741 5734 5727 5720 5714 5708 5703 5698 5694 5692 5689 5687 5685 5684 5684 5683 5681 5679 5677 5676 5676 5678 5679 5680 5680 5679 5678 5676 5676 5676 5677 5677
5806 5802 5796 5790 5783 5774 5768 5762 5754 5747 5740 5732 5724 5716 5709 5702 5695 5689 5684 5679 5676 5673 5672 5670 5669 5670 5671 5670 5667 5667 5667 5667 5668 5670 5671 5673 5674 5674 5673 5672 5671 5672 5673 5673
5799 5793 5787 5779 5769 5763 5755 5748 5740 5731 5722 5713 5704 5696 5687 5678 5671 5665 5661 5658 5655 5654 5653 5653 5653 5654 5656 5655 5650 5650 5654 5656 5657 5660 5663 5665 5666 5668 5668 5667 5667 5667 5668 5669
5789 5783 5776 5768 5760 5751 5741 5733 5723 5714 5703 5692 5682 5673 5663 5653 5646 5641 5638 5635 5632 5631 5632 5633 5635 5637 5640 5639 5635 5635 5640 5644 5646 5649 5653 5656 5658 5660 5661 5662 5662 5663 5664 5666
5776 5771 5764 5755 5746 5737 5727 5716 5705 5693 5682 5670 5659 5650 5640 5629 5619 5614 5611 5608 5606 5606 5608 5610 5613 5617 5622 5625 5624 5624 5627 5631 5634 5637 5642 5646 5650 5652 5654 5656 5658 5659 5661 5662